Weather in Tunguda

Russia / Republic of Karelia     64°13′31″N   34°18′16″E
temp.,
°C
wind,
m/s
gust,
m/s
humid.,
%
clouds,
%
prec.,
mm/h
press.,
hPa
HPBL,
m
4 august, wed
wed400:00+11sw71289100 0.1 9921184
03:00+10sw61187100 0.4 9941026
06:00+8wsw71391100 1.3 9941378
09:00+8wsw81492100 3.9 9961353
12:00+7wsw81494100 7.6 10001378
15:00+7w71494100 10.4 10051325
18:00+8w61392100 0.9 10081366
21:00+10wsw51287100 1.2 1010870
5 august, thu
thu500:00+10wsw41287100 0.0 1011527
03:00+9wsw3109099 0.0 1013300
06:00+9wsw378994 0.0 1015188
09:00+13wsw3570100 0.0 1016316
12:00+17wsw3550100 0.0 10171240
15:00+18w3443100 0.0 10171808
18:00+18ssw1247100 0.0 10181301
21:00+13ssw227177 0.0 101923
6 august, fri
fri600:00+13s1167100 0.0 101913
03:00+12ssw116895 0.0 102011
06:00+13s116899 0.0 102140
09:00+17s23487 0.0 1021430
12:00+20sse333472 0.0 10222274
15:00+20se233364 0.0 10212441
18:00+19se233845 0.0 10212104
21:00+13ese256529 0.0 102286
7 august, sat
sat700:00+11e226519 0.0 102343
03:00+10ene11705 0.0 102312
06:00+11ene24705 0.0 1024114
09:00+17e47470 0.0 1023770
12:00+20ese45362 0.0 10232085
15:00+22e463564 0.0 10222414
18:00+20ese474655 0.0 10221578
21:00+14ene39625 0.0 1022269
8 august, sun
sun800:00+13ene3106770 0.0 1022250
03:00+12e31371100 0.0 1021303
06:00+13e41469100 0.0 1021429
09:00+17ese51356100 0.0 1020799
12:00+15ese51161100 0.1 1020963
15:00+16ese61361100 0.1 1019958
18:00+14ese51179100 0.1 1020862
21:00+13ese41089100 0.2 1020737